Dublin, Ireland

10:35 PM IST on August 26, 2016 (GMT +0100)
Dublin

Weather History for 03969 - October, 2012

Change the Weather History Date:

Friday, October 26, 2012

  Actual Average Record
Temperature  
Mean Temperature 40 °F -  
Max Temperature 46 °F 51 °F - ()
Min Temperature 35 °F 41 °F - ()
Degree Days  
Heating Degree Days 24    
Moisture  
Dew Point 35 °F    
Average Humidity 76    
Maximum Humidity 93    
Minimum Humidity 46    
Precipitation  
Precipitation 0.04 in 0.09 in - ()
Sea Level Pressure  
Sea Level Pressure 30.10 in    
Wind  
Wind Speed 14 mph ()    
Max Wind Speed 22 mph    
Max Gust Speed 32 mph    
Visibility 6.8 miles    
Events Rain    
T = Trace of Precipitation, MM = Missing Value Source: Averaged Metar Reports

Daily Weather History Graph

Daily Weather History Graph

Search for Another Location

Airport or City:

Trip Planner

Search our weather history database for the weather conditions in past years. The results will help you decide how hot, cold, wet, or windy it might be!

Date:

Astronomy

Oct. 26, 2012 Rise Set
Actual Time 8:13 AM IST 6:04 PM IST
Civil Twilight 7:37 AM IST 6:40 PM IST
Nautical Twilight 6:56 AM IST 7:21 PM IST
Astronomical Twilight 6:15 AM IST 8:01 PM IST
Moon 4:32 PM IST 4:32 AM IST
Length of Visible Light 11h 03m
Length of Day
9h 50m
Waxing Gibbous, 89% of the Moon is Illuminated
Oct 26
Waxing Gibbous
Oct 29
Full
Nov 7
Last Quarter
Nov 13
New
Nov 20
First Quarter

Hourly Weather History & Observations

Time (IST) Temp. Windchill Dew Point Humidity Pressure Visibility Wind Dir Wind Speed Gust Speed Precip Events Conditions
12:00 AM 48.2 °F - 41.0 °F 76% 30.09 in 6.2 mi East 19.6 mph 32.2 mph N/A   Mostly Cloudy
12:30 AM 48.2 °F - 41.0 °F 76% 30.09 in 6.2 mi East 19.6 mph - N/A   Mostly Cloudy
1:00 AM 48 °F - 41 °F 70% 30.12 in 16 mi East 17.9 mph - -   Partly Cloudy
1:00 AM 48.2 °F - 41.0 °F 76% 30.09 in 6.2 mi East 18.4 mph - N/A   Mostly Cloudy
1:30 AM 48.2 °F - 41.0 °F 76% 30.09 in 6.2 mi East 16.1 mph - N/A   Mostly Cloudy
2:00 AM 48.2 °F - 41.0 °F 76% 30.09 in 6.2 mi East 18.4 mph - N/A   Mostly Cloudy
2:30 AM 48.2 °F - 41.0 °F 76% 30.09 in 6.2 mi East 16.1 mph - N/A   Mostly Cloudy
3:00 AM 48.2 °F - 39.2 °F 71% 30.09 in 6.2 mi East 18.4 mph - N/A   Mostly Cloudy
3:30 AM 46.4 °F 39.2 °F 39.2 °F 76% 30.09 in 6.2 mi East 18.4 mph - N/A   Mostly Cloudy
4:00 AM 46.4 °F 39.5 °F 39.2 °F 76% 30.09 in 6.2 mi East 17.3 mph - N/A   Mostly Cloudy
4:30 AM 44.6 °F 38.8 °F 41.0 °F 87% 30.09 in 6.2 mi ENE 11.5 mph - N/A Rain Light Rain
5:00 AM 44.6 °F 37.4 °F 41.0 °F 87% 30.09 in 6.2 mi East 16.1 mph - N/A   Mostly Cloudy
5:30 AM 44.6 °F 38.8 °F 41.0 °F 87% 30.09 in 6.2 mi East 11.5 mph - N/A Rain Light Rain
6:00 AM 44.6 °F 39.7 °F 41.0 °F 87% 30.09 in 6.2 mi ENE 9.2 mph - N/A Rain Light Rain
6:30 AM 44.6 °F 39.2 °F 41.0 °F 87% 30.09 in 6.2 mi ENE 10.4 mph - N/A Rain Light Rain
7:00 AM 44 °F - 40 °F 80% 30.11 in 12 mi NE 11.2 mph - - Rain Light Rain
7:00 AM 42.8 °F 37.5 °F 41.0 °F 93% 30.09 in 6.2 mi NE 9.2 mph - N/A Rain Light Rain
7:30 AM 42.8 °F 35.8 °F 39.2 °F 87% 30.09 in 6.2 mi NNE 13.8 mph - N/A Rain Light Rain
8:00 AM 42.8 °F 37.0 °F 41.0 °F 93% 30.09 in 6.2 mi NNE 10.4 mph - N/A Rain Light Rain
8:30 AM 42.8 °F 36.6 °F 41.0 °F 93% 30.09 in 6.2 mi NNE 11.5 mph - N/A Rain Light Rain
9:00 AM 42.8 °F 36.6 °F 39.2 °F 87% 30.09 in 6.2 mi NE 11.5 mph - N/A Rain Light Rain
9:30 AM 42.8 °F 36.6 °F 41.0 °F 93% 30.09 in 6.2 mi NNE 11.5 mph - N/A Rain Light Rain
10:00 AM 42.8 °F 37.5 °F 37.4 °F 81% 30.09 in 6.2 mi ENE 9.2 mph - N/A   Mostly Cloudy
10:30 AM 44.6 °F 38.4 °F 35.6 °F 71% 30.09 in 6.2 mi NE 12.7 mph - N/A   Mostly Cloudy
11:00 AM 46.4 °F 39.8 °F 35.6 °F 66% 30.09 in 6.2 mi NE 16.1 mph - N/A   Mostly Cloudy
11:30 AM 46.4 °F 39.8 °F 33.8 °F 62% 30.09 in 6.2 mi NE 16.1 mph - N/A   Mostly Cloudy
12:00 PM 44.6 °F 37.2 °F 39.2 °F 81% 30.09 in 6.2 mi NE 17.3 mph - N/A   Mostly Cloudy
12:30 PM 46.4 °F 39.2 °F 33.8 °F 62% 30.09 in 6.2 mi NNE 18.4 mph - N/A   Mostly Cloudy
1:00 PM 43 °F - 35 °F 66% 30.12 in 19 mi NNE 20.1 mph - - Rain Light Rain Showers
1:00 PM 42.8 °F 34.3 °F 35.6 °F 76% 30.09 in 6.2 mi NNE 19.6 mph - N/A   Mostly Cloudy
1:30 PM 42.8 °F 33.8 °F 35.6 °F 76% 30.09 in 6.2 mi North 21.9 mph - N/A   Mostly Cloudy
2:00 PM 42.8 °F 37.0 °F 35.6 °F 76% 30.09 in 6.2 mi North 10.4 mph - N/A Rain Light Rain Showers
2:30 PM 42.8 °F 34.5 °F 33.8 °F 70% 30.09 in 6.2 mi NNE 18.4 mph - N/A   Mostly Cloudy
3:00 PM 42.8 °F 34.3 °F 30.2 °F 61% 30.09 in 6.2 mi NNE 19.6 mph - N/A   Mostly Cloudy
3:30 PM 41.0 °F 33.5 °F 33.8 °F 76% 30.09 in 6.2 mi North 13.8 mph - N/A   Mostly Cloudy
4:00 PM 41.0 °F 33.5 °F 33.8 °F 76% 30.09 in 6.2 mi North 13.8 mph - N/A   Mostly Cloudy
4:30 PM 41.0 °F 32.8 °F 32.0 °F 70% 30.09 in 6.2 mi North 16.1 mph - N/A   Mostly Cloudy
5:00 PM 41.0 °F 32.8 °F 30.2 °F 65% 30.09 in 6.2 mi North 16.1 mph - N/A   Mostly Cloudy
5:30 PM 41.0 °F 33.1 °F 30.2 °F 65% 30.09 in 6.2 mi North 15.0 mph - N/A   Mostly Cloudy
6:00 PM 41.0 °F 33.9 °F 30.2 °F 65% 30.09 in 6.2 mi North 12.7 mph - N/A   Mostly Cloudy
6:30 PM 39.2 °F 30.8 °F 28.4 °F 65% 30.09 in 6.2 mi North 15.0 mph - N/A   Mostly Cloudy
7:00 PM 39 °F - 25 °F 46% 30.13 in 25 mi North 13.4 mph - -   Partly Cloudy
7:00 PM 39.2 °F 30.8 °F 24.8 °F 56% 30.09 in 6.2 mi NNE 15.0 mph - N/A   Scattered Clouds
7:30 PM 37.4 °F 29.8 °F 26.6 °F 65% 30.12 in 6.2 mi North 11.5 mph - N/A   Scattered Clouds
8:00 PM 37.4 °F 30.3 °F 26.6 °F 65% 30.12 in 6.2 mi NNW 10.4 mph - N/A   Scattered Clouds
8:30 PM 35.6 °F 27.1 °F 28.4 °F 75% 30.12 in 6.2 mi NNW 12.7 mph - N/A   Scattered Clouds
9:00 PM 35.6 °F 26.2 °F 28.4 °F 75% 30.12 in 6.2 mi NNW 15.0 mph - N/A   Scattered Clouds
9:30 PM 35.6 °F 26.2 °F 30.2 °F 81% 30.12 in 6.2 mi NNW 15.0 mph - N/A   Partly Cloudy
10:00 PM 35.6 °F 25.5 °F 30.2 °F 81% 30.12 in 6.2 mi NNW 17.3 mph - N/A   Partly Cloudy
10:30 PM 35.6 °F 25.9 °F 32.0 °F 87% 30.12 in 6.2 mi NNW 16.1 mph - N/A   Partly Cloudy
11:00 PM 35.6 °F 25.2 °F 30.2 °F 81% 30.15 in 6.2 mi NNW 18.4 mph - N/A   Scattered Clouds
11:30 PM 35.6 °F 25.5 °F 30.2 °F 81% 30.15 in 6.2 mi North 17.3 mph - N/A   Scattered Clouds